This demonstration page uses our WeatherBlox Daily Observations layout. Learn more.

Left ArrowRight Arrow

39.01783, -85.05884

Hourly Observations for July 19, 2021

Temp ( °F °C ) Dew Point ( °F °C ) Humidity (%) Winds ( mph kmh ) Pressure ( in mb ) Visibility ( mi km ) Precip ( " mm )
12:52 am 00:52 Clear 70 21.1 61 16.1 73 73 Calm 30.13 1020 10 16 0.00 0.00
1:52 am 01:52 Clear 71 21.7 61 16.1 71 71 NNE 6 9 30.11 1020 10 16 0.00 0.00
2:52 am 02:52 Clear 70 21.1 61 16.1 73 73 N 5 7 30.10 1019 10 16 0.00 0.00
3:52 am 03:52 Clear 71 21.7 61 16.1 71 71 NE 8 13 30.10 1019 10 16 0.00 0.00
4:52 am 04:52 Clear 70 21.1 62 16.7 76 76 NE 6 9 30.10 1019 10 16 0.00 0.00
5:52 am 05:52 Clear 69 20.6 62 16.7 78 78 NNE 5 7 30.11 1020 10 16 0.00 0.00
6:52 am 06:52 Sunny 67 19.4 61 16.1 81 81 N 3 6 30.12 1020 7 11 0.00 0.00
7:52 am 07:52 Sunny 70 21.1 62 16.7 76 76 NE 6 9 30.12 1020 9 14 0.00 0.00
8:52 am 08:52 Sunny 72 22.2 62 16.7 71 71 ENE 9 15 30.12 1020 9 14 0.00 0.00
9:52 am 09:52 Sunny 74 23.3 63 17.2 69 69 ENE 8 13 30.13 1020 9 14 0.00 0.00
10:52 am 10:52 Sunny 77 25 61 16.1 58 58 ENE 8 13 30.13 1020 10 16 0.00 0.00
11:52 am 11:52 Sunny 80 26.7 61 16.1 52 52 ENE 9 15 30.13 1020 10 16 0.00 0.00
12:52 pm 12:52 Sunny 81 27.2 59 15 47 47 E 10 17 30.12 1020 10 16 0.00 0.00
1:52 pm 13:52 Mostly Sunny 82 27.8 60 15.6 47 47 E 13 20 30.11 1020 10 16 0.00 0.00
2:52 pm 14:52 Mostly Sunny 84 28.9 60 15.6 44 44 NE 8 13 30.10 1019 10 16 0.00 0.00
3:52 pm 15:52 Mostly Sunny 84 28.9 58 14.4 41 41 NE 8 13 30.08 1019 9 14 0.00 0.00
4:52 pm 16:52 Mostly Sunny 84 28.9 58 14.4 41 41 ENE 10 17 30.06 1018 9 14 0.00 0.00
5:52 pm 17:52 Mostly Sunny 85 29.4 59 15 42 42 NNE 13 20 30.05 1018 9 14 0.00 0.00
6:52 pm 18:52 Mostly Sunny 82 27.8 62 16.7 51 51 N 14 22 30.05 1018 9 14 0.00 0.00
7:52 pm 19:52 Mostly Sunny 80 26.7 61 16.1 52 52 N 10 17 30.05 1018 9 14 0.00 0.00
8:52 pm 20:52 Mostly Sunny 78 25.6 61 16.1 56 56 N 7 11 30.06 1018 9 14 0.00 0.00
9:52 pm 21:52 Clear 77 25 61 16.1 58 58 NNE 7 11 30.06 1018 10 16 0.00 0.00
10:52 pm 22:52 Clear 77 25 60 15.6 56 56 NE 7 11 30.06 1018 10 16 0.00 0.00
11:52 pm 23:52 Clear 74 23.3 61 16.1 64 64 NNE 6 9 30.06 1018 10 16 0.00 0.00

Powered by AerisWeather